CW7164 Weather Reports


time (UTC)temp
C
wind
direction
speed
KPH
gust
KPH
rain 1hr
cm
rain 24hr
cm
rain mn
cm
humidity
%
barometer
mb
20260906115245 20 64 0.0 1.6 0.00 0.00 0.00 1 1017.9
20260906114345 20 64 0.0 3.2 0.00 0.00 0.00 1 1017.7
20260906113445 20 56 0.0 3.2 0.00 0.00 0.00 1 1017.6
20260906112545 20 30 0.0 1.6 0.00 0.00 0.00 1 1017.4
20260906111644 20 355 0.0 1.6 0.00 0.00 0.00 1 1017.3
20260906110811 20 65 0.0 1.6 0.00 0.00 0.00 1 1017.3
20260906104945 20 31 0.0 1.6 0.00 0.00 0.00 1 1017.2
20260906104046 20 0 0.0 0.0 0.00 0.00 0.00 1 1016.9
20260906103146 20 0 0.0 0.0 0.00 0.00 0.00 1 1016.9
20260906102245 20 31 0.0 1.6 0.00 0.00 0.00 1 1017.0
20260906100445 20 0 0.0 0.0 0.00 0.00 0.00 1 1016.9
20260906095545 21 31 0.0 1.6 0.00 0.00 0.00 1 1016.8
20260906094646 21 30 0.0 1.6 0.00 0.00 0.00 1 1016.7
20260906093746 21 0 0.0 0.0 0.00 0.00 0.00 1 1016.7
20260906092845 21 38 0.0 3.2 0.00 0.00 0.00 1 1016.9
20260906091946 21 31 0.0 3.2 0.00 0.00 0.00 1 1016.8
20260906091046 21 1 0.0 1.6 0.00 0.00 0.00 1 1016.6
20260906090145 21 0 0.0 0.0 0.00 0.00 0.00 1 1016.7
20260906085245 21 0 0.0 0.0 0.00 0.00 0.00 1 1016.7
20260906084346 21 1 0.0 1.6 0.00 0.00 0.00 1 1016.7
20260906083446 21 0 0.0 0.0 0.00 0.00 0.00 1 1016.5
20260906081646 21 1 0.0 1.6 0.00 0.00 0.00 1 1016.6
20260906080746 21 0 0.0 0.0 0.00 0.00 0.00 1 1016.7
20260906074046 22 345 0.0 1.6 0.00 0.00 0.00 1 1016.8
20260906073146 22 324 0.0 1.6 0.00 0.00 0.00 1 1016.9
20260906072246 22 324 0.0 1.6 0.00 0.00 0.00 1 1016.9
20260906071345 22 0 0.0 0.0 0.00 0.00 0.00 1 1016.9
20260906070446 22 324 0.0 1.6 0.00 0.00 0.00 1 1017.0
20260906065545 22 0 0.0 0.0 0.00 0.00 0.00 1 1017.1
20260906064646 22 9 0.0 1.6 0.00 0.00 0.00 1 1017.0
20260906063746 22 74 0.0 1.6 0.00 0.00 0.00 1 1016.9
20260906062845 22 90 0.0 1.6 0.00 0.00 0.00 1 1016.8
20260906061946 22 94 0.0 1.6 0.00 0.00 0.00 1 1016.9
20260906061046 22 0 0.0 0.0 0.00 0.00 0.00 2 1016.9
20260906055246 22 351 0.0 1.6 0.00 0.00 0.00 4 1016.8
20260906054346 22 34 0.0 1.6 0.00 0.00 0.00 5 1016.6
20260906053446 22 71 0.0 4.8 0.00 0.00 0.00 7 1016.7
20260906052546 22 336 0.0 3.2 0.00 0.00 0.00 8 1016.6
20260906051646 22 61 0.0 4.8 0.00 0.00 0.00 8 1016.6
20260906050746 22 65 0.0 1.6 0.00 0.00 0.00 7 1016.5
20260906045846 22 88 0.0 1.6 0.00 0.00 0.00 7 1016.6
20260906044946 22 326 0.0 3.2 0.00 0.00 0.00 7 1016.5
20260906044046 22 65 0.0 1.6 0.00 0.00 0.00 8 1016.4
20260906043146 22 40 0.0 1.6 0.00 0.00 0.00 9 1016.2
20260906041346 22 340 0.0 1.6 0.00 0.00 0.00 15 1015.9
20260906035546 22 187 0.0 1.6 0.00 0.00 0.00 19 1015.7
20260906034645 22 223 0.0 6.4 0.00 0.00 0.00 22 1015.6
20260906033746 23 277 0.0 3.2 0.00 0.00 0.00 22 1015.5
20260906032846 23 51 0.0 1.6 0.00 0.00 0.00 23 1015.6
20260906031945 22 63 1.6 3.2 0.00 0.00 0.00 25 1015.6
20260906030146 22 77 0.0 1.6 0.00 0.00 0.00 25 1015.5
20260906025246 22 77 0.0 1.6 0.00 0.00 0.00 25 1015.6
20260906024346 22 84 1.6 4.8 0.00 0.00 0.00 25 1015.7
20260906023446 22 48 1.6 4.8 0.00 0.00 0.00 25 1015.6
20260906022546 22 240 1.6 8.0 0.00 0.00 0.00 23 1015.6
20260906021646 22 100 1.6 6.4 0.00 0.00 0.00 23 1015.6
20260906020745 22 136 1.6 6.4 0.00 0.00 0.00 25 1015.5
20260906015846 22 299 1.6 4.8 0.00 0.00 0.00 25 1015.4
20260906014946 22 70 1.6 4.8 0.00 0.00 0.00 26 1015.6
20260906014046 23 280 1.6 8.0 0.00 0.00 0.00 24 1015.7
20260906013146 23 343 0.0 3.2 0.00 0.00 0.00 20 1015.6
20260906012245 23 7 1.6 4.8 0.00 0.00 0.00 23 1015.5
20260906011345 23 226 1.6 4.8 0.00 0.00 0.00 25 1015.6
20260906010446 23 67 1.6 3.2 0.00 0.00 0.00 27 1015.6
20260906005546 23 45 1.6 6.4 0.00 0.00 0.00 29 1015.5
20260906004645 23 329 1.6 8.0 0.00 0.00 0.00 31 1015.3
20260906003745 23 331 1.6 6.4 0.00 0.00 0.00 35 1015.2
20260906002846 23 230 1.6 6.4 0.00 0.00 0.00 34 1015.1
20260906001945 23 152 0.0 4.8 0.00 0.00 0.00 33 1014.8
20260906001046 23 331 1.6 8.0 0.00 0.00 0.00 37 1014.8
20260906000145 24 298 1.6 8.0 0.00 0.00 0.00 42 1014.8
20260905235245 24 55 1.6 4.8 0.00 0.00 0.00 47 1014.8
20260905234346 24 229 1.6 4.8 0.00 0.00 0.00 52 1014.9
20260905233446 25 181 1.6 4.8 0.00 0.00 0.00 56 1014.8
20260905232545 25 334 1.6 4.8 0.00 0.00 0.00 56 1014.7
20260905231645 26 308 0.0 3.2 0.00 0.00 0.00 58 1014.4
20260905225846 26 264 1.6 9.7 0.00 0.00 0.00 62 1014.4
20260905224946 27 175 0.0 3.2 0.00 0.00 0.00 64 1014.2
20260905224045 27 133 1.6 3.2 0.00 0.00 0.00 64 1014.3
20260905220445 28 307 1.6 3.2 0.00 0.00 0.00 63 1014.0
20260905215545 28 309 0.0 6.4 0.00 0.00 0.00 63 1014.1
20260905214645 29 166 0.0 3.2 0.00 0.00 0.00 63 1014.1
20260905213745 29 74 1.6 3.2 0.00 0.00 0.00 63 1014.1
20260905212845 28 119 1.6 3.2 0.00 0.00 0.00 63 1014.1
20260905211945 28 76 1.6 3.2 0.00 0.00 0.00 63 1014.1
20260905211045 28 230 1.6 3.2 0.00 0.00 0.00 63 1014.1
20260905205245 27 44 1.6 3.2 0.00 0.00 0.00 55 1014.2
20260905204345 26 195 1.6 3.2 0.00 0.00 0.00 55 1014.4
20260905203445 26 270 0.0 1.6 0.00 0.00 0.00 56 1014.3
20260905201645 27 13 1.6 3.2 0.00 0.00 0.00 55 1014.4
20260905200745 27 359 1.6 4.8 0.00 0.00 0.00 56 1014.3
20260905195845 27 279 1.6 4.8 0.00 0.00 0.00 57 1014.4
20260905194945 27 238 1.6 3.2 0.00 0.00 0.00 58 1014.4
20260905194045 27 246 0.0 4.8 0.00 0.00 0.00 57 1014.4
20260905193145 27 188 1.6 3.2 0.00 0.00 0.00 60 1014.5
20260905192245 28 139 1.6 4.8 0.00 0.00 0.00 62 1014.6
20260905191345 28 110 1.6 3.2 0.00 0.00 0.00 63 1014.6
20260905190445 28 43 1.6 4.8 0.00 0.00 0.00 63 1014.7
20260905185545 28 182 1.6 4.8 0.00 0.00 0.00 63 1014.5
20260905183745 28 290 1.6 8.0 0.00 0.00 0.00 62 1014.8
20260905182845 28 328 1.6 6.4 0.00 0.00 0.00 61 1014.7
20260905181945 28 10 1.6 4.8 0.00 0.00 0.00 61 1014.6
20260905181045 28 304 1.6 4.8 0.00 0.00 0.00 61 1014.6
20260905175245 28 292 1.6 4.8 0.00 0.00 0.00 60 1014.5
20260905174345 28 342 1.6 3.2 0.00 0.00 0.00 58 1014.6
20260905173445 28 3 1.6 3.2 0.00 0.00 0.00 59 1014.4
20260905172545 28 113 1.6 4.8 0.00 0.00 0.00 59 1014.4
20260905171645 28 270 1.6 3.2 0.00 0.00 0.00 55 1014.5
20260905170745 28 88 1.6 4.8 0.00 0.00 0.00 57 1014.5
20260905164945 28 343 1.6 4.8 0.00 0.00 0.00 55 1014.6
20260905164045 28 85 1.6 4.8 0.00 0.00 0.00 51 1014.7
20260905163145 27 1 1.6 6.4 0.00 0.00 0.00 53 1014.6
20260905162245 27 19 1.6 3.2 0.00 0.00 0.00 53 1014.6
20260905160445 27 26 1.6 4.8 0.00 0.00 0.00 47 1014.6
20260905155545 27 307 0.0 3.2 0.00 0.00 0.00 44 1014.6
20260905154645 27 268 0.0 3.2 0.00 0.00 0.00 42 1014.5
20260905153745 26 120 1.6 4.8 0.00 0.00 0.00 36 1014.5
20260905151045 26 327 1.6 4.8 0.00 0.00 0.00 24 1014.1
20260905150145 26 339 1.6 3.2 0.00 0.00 0.00 23 1014.1
20260905145245 26 318 1.6 4.8 0.00 0.00 0.00 22 1014.1
20260905144345 26 286 1.6 3.2 0.00 0.00 0.00 16 1014.0
20260905143445 25 4 0.0 3.2 0.00 0.00 0.00 9 1013.9
20260905142545 25 304 0.0 4.8 0.00 0.00 0.00 1 1014.0
20260905141645 25 345 0.0 4.8 0.00 0.00 0.00 1 1013.9
20260905140745 25 237 0.0 1.6 0.00 0.00 0.00 1 1013.7
20260905135845 24 277 0.0 4.8 0.00 0.00 0.00 1 1013.7
20260905133144 24 22 0.0 3.2 0.00 0.00 0.00 1 1014.0
20260905132245 24 284 0.0 3.2 0.00 0.00 0.00 1 1014.1
20260905131344 24 277 0.0 3.2 0.00 0.00 0.00 1 1014.0
20260905130445 24 298 0.0 3.2 0.00 0.00 0.00 1 1013.6
20260905125544 24 321 1.6 3.2 0.00 0.00 0.00 1 1013.4
20260905124644 24 322 0.0 1.6 0.00 0.00 0.00 1 1013.3
20260905123744 24 29 0.0 1.6 0.00 0.00 0.00 1 1013.1
20260905121944 24 21 0.0 1.6 0.00 0.00 0.00 1 1013.0